ニート彗星

C/2004 D1 ( NEAT )

English version
Home page
Total 6,336 html files since Dec. 4, 1995
Updated on August 24, 2008

---------------------------------------------------------------------

・ プロフィール

発見日 2004年2月17日
発見光度 19.8等
発見者 Near-Earth-Asteroid Tracking Team (Jet Propulsion Laboratory)

・ 写真集

・ 軌道要素

The following orbital elements are taken from MPC 56169:

Epoch 2006 Jan. 25.0 TT = JDT 2453760.5
T 2006 Feb. 10.7934 TT                                  MPC
q   4.974592             (2000.0)            P               Q
z  -0.000309       Peri.   75.5400      -0.4840112      -0.6056048
 +/-0.000001       Node    62.2535      +0.2175626      -0.7824460
e   1.001537       Incl.   45.5377      +0.8475846      -0.1449867
From 250 observations 2003 Dec. 22-2006 Mar. 6, mean residual 0".5.

・ 星図

・ 光度変化

        m1 = 2.3 + 5 logΔ + 15.0 log r

---------------------------------------------------------------------

軌道要素はMPCのEphemerides and Orbital Elementsに掲載されたものです。
星図は StellaNavigator Ver.2.0 for Windows (アストロアーツ 編著 / アスキー出版局刊) で作成したものです。
光度グラフはComet for Windowsで作成したものです。

---------------------------------------------------------------------

Copyright(C) 1995-2008 Seiichi Yoshida (comet@aerith.net). All rights reserved.